Regional Weather Roundup
Issued by NWS Northern Indiana

Home | Current Version | Previous Version | Graphics & Text | Print | Product List | Glossary On
Versions: 1 2 3 4 5 6 7 8 9 10 11 12 13 14 15 16 17 18 19 20 21 22 23 24 25 26 27 28 29 30 31 32 33 34 35 36 37 38 39 40 41 42 43 44 45 46 47 48 49 50
000
ASUS43 KIWX 022000
RWRIWX

KIWX WEATHER ROUNDUP
NATIONAL WEATHER SERVICE NORTHERN INDIANA
400 PM EDT WED SEP 02 2015

NOTE: "FAIR" INDICATES FEW OR NO CLOUDS BELOW 12,000 FEET WITH NO
SIGNIFICANT WEATHER AND/OR OBSTRUCTIONS TO VISIBILITY.

* THESE STATIONS ARE NOT UNDER NWS QUALITY CONTROL. THEY ALSO MAY NOT
  REPORT WEATHER SUCH AS PRECIPITATION OR FOG.

INZ001>027-022100-
NORTHERN INDIANA

CITY           SKY/WX    TMP DP  RH WIND       PRES   REMARKS
GARY*          PTSUNNY   90  64  43 SW9       30.01F
KNOX*          MOSUNNY   88  66  48 SW8       30.01F
SOUTH BEND     MOSUNNY   88  67  49 W10       30.03F
ELKHART*       MOSUNNY   90  68  48 W8        30.03F
GOSHEN         SUNNY     88  69  53 W12       30.02F
MONTICELLO*    MOSUNNY   89  71  54 W10       30.02F HX  95
ANGOLA*        SUNNY     91  72  52 W8        30.02F HX  98
FORT WAYNE     PTSUNNY   88  69  53 W10       30.03F

$$
INZ028>050-022100-
CENTRAL INDIANA

CITY           SKY/WX    TMP DP  RH WIND       PRES   REMARKS
LAFAYETTE      MOSUNNY   88  67  49 SW7       30.03F
KOKOMO*        MOSUNNY   90  68  48 SW13G18   30.04F
MUNCIE*        MOSUNNY   86  69  56 W10       30.05F
INDIANAPOLIS   PTSUNNY   87  67  51 SW13      30.05F

$$
MIZ043>046-050>051-056>058-064>065-071>073-077>080-022100-
SOUTHWEST LOWER MICHIGAN

CITY           SKY/WX    TMP DP  RH WIND       PRES   REMARKS
BATTLE CREEK   SUNNY     89  70  53 W14       30.03F
BENTON HARBOR  SUNNY     85  69  58 W6        30.02F
COLDWATER*     MOSUNNY   91  66  44 W7        30.01F
HILLSDALE*     MOSUNNY   87  70  55 W9        30.03F
HOLLAND        SUNNY     86  71  60 W8        30.02F
GRAND RAPIDS   MOSUNNY   88  71  57 W13       30.01F
KALAMAZOO      MOSUNNY   88  69  53 NW9       30.02F
STURGIS*       MOSUNNY   88  70  55 W8        30.02F
THREE RIVERS*  FAIR      90  69  49 W7        30.02F

$$
OHZ001>008-015>018-024>025-022100-
NORTHWEST OHIO

CITY           SKY/WX    TMP DP  RH WIND       PRES   REMARKS
DEFIANCE       SUNNY     91  66  43 W8        30.00F
FINDLAY        MOSUNNY   89  71  55 SW12      30.00F HX  95
TOLEDO EXPRESS CLOUDY    72  68  87 SE9       30.00F
TOLEDO METCALF MOSUNNY   86  70  58 SW7       30.00F
LIMA           PTSUNNY   87  69  54 SW13      30.03F

$$
AND FOR LAKE MICHIGAN COASTAL AND OPEN LAKE BUOY OBSERVATIONS

STATION/POSITION TEMP    WIND        PRES    VSBY  WAVE
                 AIR SEA DIR/SP/G                  HT/PER
                 (F)     (DEG/KT/KT) (MB)    (MI)  (FT/S)
CALUMET HARBOR    88     200/ 10/ 14   N/A
MICHIGAN CITY     85        CALM       N/A
BURNS HARBOR      87     220/ 11/ 14 1016.6F
SAINT JOSEPH      79     180/  5/  6 1017.9S
SOUTH LAKE BUOY   74 72  180/  6/  8 1015.4F         1
4 MI NW BRIDGMAN  76 74  270/  2/  4   N/A           1/ 3
MICHIGAN CITY     83 74     CALM       N/A           0

$$
&&


USA.gov is the U.S. government's official web portal to all federal, state and local government web resources and services.